Theta_e
283 282 282 282 283 283 282 283 283 281 281 281 281 281 280 280 281 281 281 281 282 283 285 285 286 287 288 288 286 287 287 287 285 288 289 284 283 285 286 287 288 289 290
282 281 281 281 281 280 281 282 282 280 281 281 281 280 280 280 280 279 279 280 280 281 282 282 283 287 286 286 287 286 286 287 286 285 288 284 281 283 286 285 286 287 288
281 280 280 280 279 279 279 280 281 280 280 280 280 280 279 279 279 279 279 279 279 280 281 281 282 283 283 285 285 285 286 287 286 286 286 285 283 280 282 282 284 285 285
280 279 279 279 279 279 279 279 279 279 279 278 279 279 279 279 279 279 279 279 279 280 281 282 282 282 282 283 284 284 285 285 285 285 285 286 280 281 283 282 281 282 282
279 279 279 279 280 279 279 279 279 279 279 279 279 279 279 278 279 278 278 278 278 279 280 281 281 283 285 285 284 283 284 284 285 285 284 285 281 278 280 281 282 282 281
278 279 280 280 280 280 280 280 280 280 280 279 279 278 278 278 281 282 281 279 278 278 278 279 280 281 282 286 287 288 287 284 284 285 284 283 284 282 282 282 281 280 278
278 278 278 278 277 278 278 277 277 277 277 277 277 277 277 278 281 282 282 279 278 277 277 278 278 279 280 281 283 285 286 288 290 287 285 284 284 286 283 281 281 282 282
275 274 274 274 272 273 272 272 271 272 272 272 272 273 273 275 279 279 280 278 278 277 277 276 276 276 277 278 278 279 281 282 283 284 286 287 288 287 288 284 283 283 284
272 272 272 270 268 269 267 268 268 267 267 266 268 268 268 269 273 274 274 273 274 275 276 276 275 274 277 278 276 276 278 280 285 288 289 289 290 292 291 286 282 281 280
270 269 269 268 266 265 265 264 264 264 264 265 264 265 265 264 269 271 271 269 269 271 272 273 275 274 276 278 275 275 275 278 280 282 283 286 288 288 290 289 285 281 280
267 266 266 265 263 262 262 262 261 261 262 261 261 262 262 264 265 269 271 270 269 269 269 270 272 275 276 277 279 276 277 280 281 281 282 284 284 284 285 288 288 284 282
264 263 262 261 261 261 259 260 260 259 259 259 259 260 262 263 266 268 270 271 272 268 268 270 270 273 274 275 276 278 280 282 281 281 282 282 283 283 284 285 287 286 286
260 258 258 259 260 260 259 259 259 259 259 259 259 259 260 262 263 267 269 270 270 268 268 269 272 273 274 274 275 277 276 276 278 280 280 281 283 284 284 284 285 285 284
257 258 259 259 259 259 260 259 258 258 258 258 259 259 260 261 263 264 264 264 267 268 269 267 269 271 273 273 271 273 273 275 277 280 280 281 284 283 282 283 283 282 281
258 259 258 259 258 258 259 259 259 261 261 261 263 264 264 264 266 270 271 270 270 270 270 268 266 265 265 268 270 271 272 276 277 277 277 279 282 281 281 283 281 279 278
257 258 259 259 258 258 258 258 264 266 267 269 270 269 268 271 272 273 274 274 274 275 270 268 266 266 266 267 267 268 271 272 276 277 279 279 280 280 280 280 280 278 277
257 259 259 259 258 258 258 257 256 260 266 267 268 269 271 271 273 273 273 274 274 274 268 267 266 266 266 267 268 269 270 272 275 277 279 280 281 280 279 277 278 276 276
258 259 258 258 258 258 258 258 258 257 257 259 265 268 270 271 271 272 273 273 267 268 266 266 265 265 265 267 268 268 269 270 272 275 278 280 280 279 277 276 275 275 273
257 257 258 258 258 258 258 258 259 259 259 260 262 265 265 268 270 270 270 264 264 264 265 265 265 266 265 266 266 267 269 272 274 276 278 278 277 277 275 275 275 275 272
257 258 258 257 257 257 257 258 258 259 259 259 259 260 261 265 260 260 262 262 262 263 264 265 267 266 267 268 268 269 270 271 275 276 276 276 276 275 274 273 273 271 271
257 256 256 256 255 256 257 257 258 258 258 259 259 261 268 261 260 260 260 261 261 262 263 265 268 270 270 270 271 274 273 272 272 272 272 272 272 271 272 272 271 271 270
254 254 255 254 255 256 256 257 258 258 258 258 259 260 266 260 260 260 260 260 261 262 263 264 265 267 268 269 270 270 270 270 270 270 270 270 270 270 270 270 269 269 268
252 252 254 254 254 255 256 256 257 258 258 258 259 259 259 259 260 260 260 261 261 262 263 263 264 265 266 267 268 268 268 268 269 270 269 269 269 269 269 268 268 267 267
249 250 252 253 253 254 254 255 256 257 257 257 258 258 259 259 260 260 261 261 261 262 262 263 264 264 265 266 267 268 268 268 269 269 269 268 267 267 267 267 266 266 266
246 247 249 250 251 252 253 254 255 255 255 256 256 257 258 259 259 260 260 261 261 261 262 263 264 265 265 265 266 267 268 267 268 268 268 267 267 266 266 266 266 265 265
247 247 247 249 249 250 250 252 252 253 253 254 255 255 256 258 259 259 260 260 260 261 262 263 264 266 267 268 268 269 269 269 267 267 267 266 266 265 265 265 264 264 264
Wind_Speed
2 2 3 5 6 6 6 7 8 8 9 10 10 10 9 7 6 5 6 7 6 8 9 8 10 9 9 8 5 8 10 9 15 12 8 6 7 10 8 11 13 13 13
6 6 7 6 4 5 6 7 7 7 8 9 10 12 13 12 10 8 9 7 8 10 10 9 11 8 10 9 9 10 10 10 11 18 12 6 9 9 12 13 12 12 13
5 5 6 6 6 7 7 7 7 7 8 9 10 11 11 12 13 13 11 12 11 11 11 10 11 9 11 10 10 10 10 9 10 12 13 7 7 3 6 6 10 11 9
6 6 7 7 7 6 6 7 7 8 9 9 10 12 12 12 13 13 13 15 14 13 11 10 12 12 12 12 11 12 11 11 10 10 13 11 7 5 7 8 8 7 10
6 6 7 7 6 7 7 8 9 8 10 10 11 12 12 11 10 11 12 13 13 15 15 15 14 14 20 19 11 12 11 11 11 11 12 11 8 4 8 6 12 8 11
6 6 6 7 9 10 12 13 14 14 14 13 14 13 15 12 24 27 23 14 15 15 16 17 16 16 17 26 28 27 21 14 15 11 12 15 17 10 10 10 10 9 9
6 7 8 9 10 11 11 12 14 15 15 17 17 18 19 18 27 30 29 16 16 17 18 16 15 14 17 16 22 28 26 28 27 18 18 18 17 15 9 13 13 14 14
9 10 9 7 8 10 13 15 16 15 17 17 19 20 20 19 34 36 35 22 19 20 20 20 19 20 20 20 19 19 19 18 18 15 18 21 18 15 15 14 16 17 14
9 9 8 10 13 15 15 15 15 16 17 17 18 19 19 20 30 34 31 22 21 22 19 19 19 21 28 35 24 23 22 21 21 29 30 31 29 28 24 10 12 11 13
7 9 12 12 11 14 16 17 15 15 17 15 17 17 20 20 25 30 27 15 19 16 19 20 28 25 36 38 25 22 21 21 18 17 14 20 25 23 31 20 13 15 14
9 10 10 11 13 14 16 14 15 16 16 16 18 16 17 17 18 28 29 17 14 14 14 14 14 30 34 36 35 21 23 22 23 19 15 14 15 14 13 15 16 15 16
9 10 11 12 10 11 14 14 15 15 16 16 16 15 12 14 20 24 29 30 28 17 16 14 15 29 34 36 30 32 36 33 17 16 14 13 13 13 13 13 16 15 17
8 10 11 11 11 11 12 14 12 13 13 13 13 13 13 12 12 28 32 32 31 22 15 22 35 35 36 29 32 35 28 18 17 15 13 14 13 13 14 13 14 12 16
10 11 11 11 12 12 10 11 11 11 11 12 13 14 15 14 13 12 13 16 26 24 27 20 24 31 33 28 19 19 15 19 17 13 12 12 10 11 11 11 11 9 10
10 11 11 9 11 12 11 11 11 13 14 14 13 14 15 15 13 26 25 16 14 17 21 14 12 13 13 12 12 12 14 17 11 9 9 12 13 12 12 10 11 8 11
11 10 10 10 10 10 11 13 23 26 29 30 32 26 15 28 35 34 34 34 34 34 16 14 14 14 14 13 13 13 14 16 9 8 9 12 14 11 11 8 11 9 11
10 12 10 11 10 11 11 12 13 20 30 29 29 30 32 32 34 33 33 33 33 30 13 13 13 13 13 13 11 12 13 10 10 9 11 12 14 11 11 10 10 10 9
11 13 9 10 10 11 11 12 12 12 14 16 23 27 28 31 32 31 31 29 14 15 13 14 14 12 12 11 10 11 11 12 11 11 12 11 9 10 9 10 11 12 10
9 8 9 10 10 12 11 11 11 12 12 13 13 18 18 29 29 26 25 10 12 13 12 12 12 12 11 11 11 11 13 12 11 12 10 7 7 9 10 10 10 12 12
8 11 11 9 10 10 10 10 11 11 12 12 12 12 14 13 12 12 11 11 11 12 12 12 13 10 10 11 11 12 12 13 14 8 5 5 6 7 7 9 9 10 10
7 7 10 7 8 9 9 10 10 10 11 11 12 13 27 12 11 11 12 11 11 12 13 13 12 7 7 9 11 7 6 1 2 3 4 4 5 6 6 7 8 8 10
5 6 6 7 9 9 9 9 9 10 11 11 12 12 25 9 10 10 11 11 11 11 10 11 10 9 9 8 7 6 5 4 4 5 5 6 6 7 8 8 9 9 10
4 5 6 7 7 9 8 8 9 9 10 10 11 11 11 10 10 10 11 11 11 11 11 10 10 9 9 8 8 7 6 6 5 5 6 6 7 7 7 8 9 9 9
3 3 5 7 6 7 7 8 8 10 10 10 10 10 10 11 11 12 11 11 10 11 11 10 10 13 11 10 8 7 7 7 7 7 9 8 8 9 8 9 9 12 11
3 3 3 6 6 6 7 7 7 8 8 9 9 9 10 10 11 11 11 11 11 11 12 12 11 12 13 14 13 13 13 15 11 10 8 10 11 12 10 9 11 11 12
3 2 2 4 4 5 5 6 7 7 8 8 8 9 9 10 10 10 10 11 11 11 13 10 14 19 18 11 11 13 14 15 12 13 9 9 10 9 9 11 14 10 11
Wind_Direction
235 256 280 285 308 325 327 330 324 323 331 329 323 315 308 299 288 293 292 286 286 293 296 284 275 261 260 256 239 242 240 236 256 263 269 222 218 218 216 215 216 212 217
223 217 224 237 257 273 264 261 276 287 297 295 296 300 308 310 311 305 294 286 277 283 283 286 282 286 268 259 255 249 243 238 250 265 258 244 225 223 217 215 217 216 215
236 245 261 258 250 249 246 249 250 251 250 259 265 274 281 290 297 297 293 290 281 271 270 274 277 274 277 271 258 255 257 253 245 257 264 245 226 195 221 218 214 221 221
252 251 260 267 269 271 270 262 257 254 259 261 261 267 268 269 269 272 280 285 287 284 274 260 262 261 262 265 262 258 256 256 251 252 260 260 217 210 222 217 217 209 214
310 313 301 305 296 291 285 282 275 267 270 268 273 274 271 265 267 273 269 266 272 276 278 280 273 259 256 253 255 259 253 253 253 252 256 255 229 204 211 202 226 209 221
343 321 320 320 312 309 309 308 304 300 297 290 285 279 277 273 280 283 286 283 280 278 277 275 272 269 262 265 266 262 254 252 252 250 252 250 250 225 222 213 211 203 230
330 322 320 319 314 318 322 320 314 311 307 299 295 292 288 284 282 282 282 279 276 272 270 271 274 270 271 270 270 269 266 260 254 253 252 246 254 243 212 212 208 217 228
327 321 321 337 326 319 312 306 303 301 299 297 294 293 291 289 290 291 292 288 281 272 267 266 267 270 269 273 275 271 264 257 253 252 249 252 246 247 240 216 211 219 229
312 314 332 327 315 312 307 303 301 300 295 293 291 294 295 295 300 298 296 291 283 278 273 265 265 269 272 275 275 272 266 261 257 254 251 253 253 247 242 231 217 214 224
320 315 312 309 305 303 300 300 299 294 291 294 292 290 289 290 295 295 293 282 280 280 278 275 271 270 272 272 268 264 262 258 257 254 249 256 259 253 245 239 220 217 223
312 305 305 304 299 294 294 296 295 292 290 290 288 289 288 287 290 293 292 285 283 282 279 277 272 272 273 273 269 261 257 261 258 254 249 245 247 246 242 231 228 219 218
308 305 299 293 288 290 289 290 289 290 289 290 290 288 283 283 284 288 291 289 287 285 283 284 286 289 288 286 284 277 274 272 254 245 241 237 233 237 236 232 232 221 228
305 296 292 291 289 287 288 288 291 287 287 289 290 290 288 281 275 279 283 285 285 282 275 271 275 278 277 281 286 278 276 270 265 241 235 241 236 232 228 226 230 227 229
297 299 300 301 300 296 291 288 287 285 286 286 285 282 281 279 271 264 260 263 266 270 271 274 268 268 267 268 271 268 266 264 249 242 234 245 246 224 217 214 218 206 205
302 303 301 300 302 298 289 287 283 280 278 280 280 286 294 293 288 287 292 290 286 277 273 262 253 251 252 254 264 267 264 272 232 220 236 247 249 213 213 205 202 194 203
302 299 303 305 301 296 294 293 291 294 297 297 297 296 294 294 300 299 297 295 292 289 280 273 265 260 259 261 259 262 268 272 247 234 237 240 234 226 206 195 191 191 198
279 300 303 301 297 297 297 296 297 307 304 303 303 302 303 301 302 307 307 301 298 297 284 274 268 263 260 257 257 257 265 260 269 264 250 246 237 209 191 186 187 180 186
295 298 301 296 296 296 295 294 294 296 300 307 312 308 313 319 315 311 310 309 302 289 279 275 269 263 260 258 254 251 260 261 258 260 254 251 209 195 183 183 181 181 166
303 302 303 298 300 299 297 296 297 300 302 304 308 316 321 314 316 329 326 315 302 302 299 281 270 262 250 248 246 248 260 259 256 253 245 218 194 183 188 182 178 171 158
295 296 309 305 305 304 305 308 311 313 311 316 317 318 314 323 335 330 326 318 313 310 309 300 287 250 249 243 241 240 245 250 255 236 215 196 182 178 170 161 160 151 157
302 306 308 308 306 306 309 312 313 314 315 318 317 320 333 348 324 326 326 326 324 323 322 324 335 330 265 254 248 247 219 155 94 102 109 115 126 126 129 132 131 131 131
294 300 313 312 305 309 314 313 317 317 320 324 325 327 340 336 335 334 333 333 332 331 330 332 338 352 357 3 10 27 39 49 66 87 93 96 105 110 116 119 122 124 129
286 309 322 312 303 305 314 319 324 329 330 329 331 333 340 341 341 343 341 339 339 341 342 346 352 355 1 8 14 24 37 33 38 66 87 91 94 99 107 113 119 120 124
293 306 318 305 307 313 317 324 325 331 332 333 337 339 341 341 344 346 347 345 346 348 350 355 3 10 9 14 16 24 36 42 50 59 75 86 89 95 98 99 101 108 107
296 305 316 300 307 309 315 321 326 330 332 334 337 338 339 342 345 349 349 351 350 355 356 357 2 6 18 24 31 39 47 54 59 67 72 83 87 88 94 97 104 100 101
284 294 291 292 303 305 307 320 320 322 324 329 331 331 333 338 342 344 347 353 353 353 357 1 2 10 16 23 44 49 56 59 56 61 71 80 87 90 92 94 95 95 96